BAW717 KBOS-EGLL

Flight info

Callsign BAW717
Flight time N/A
Altitude 35000
Route LBSTA8 LBSTA DCT ENE DCT TUFFI DCT TAFFY N693A NEEKO/M084F370 DCT 5350N DCT 5440N DCT 5430N DCT 5420N DCT DOGAL/N0486F370 DCT BEXET/N0489F390 DCT ENJEX DCT AVZAC DCT INFEC DCT JETZI DCT AMFUL DCT ORZEB/N0453F230 P2 SIRIC
Aircraft B77W/H-SDE1E2E3FGHIJ2J3J4J5M1RWXY/LB1D1

Departure

Time N/A
Airport Boston Logan International Airport (KBOS)

Arrival

Time 2026-05-04 04:38
Airport London Heathrow Airport (EGLL)
Time Latitude Longitude Altitude Speed Heading
2026-05-04 02:15 54.01745 -29.56101 33002 ft 488 kts 86°
2026-05-04 02:15 54.01963 -29.50313 33000 ft 488 kts 86°
2026-05-04 02:15 54.02386 -29.38834 33001 ft 488 kts 86°
2026-05-04 02:16 54.02799 -29.27311 33001 ft 488 kts 86°
2026-05-04 02:16 54.03201 -29.15831 33000 ft 488 kts 86°
2026-05-04 02:17 54.03593 -29.04330 33000 ft 488 kts 86°
2026-05-04 02:17 54.03974 -28.92827 33002 ft 488 kts 86°
2026-05-04 02:18 54.04345 -28.81293 33002 ft 488 kts 87°
2026-05-04 02:18 54.04704 -28.69781 33000 ft 488 kts 87°
2026-05-04 02:19 54.05053 -28.58234 33002 ft 488 kts 87°
2026-05-04 02:19 54.05388 -28.46791 33000 ft 488 kts 87°
2026-05-04 02:20 54.05714 -28.35278 33002 ft 488 kts 87°
2026-05-04 02:20 54.06030 -28.23746 33000 ft 488 kts 87°
2026-05-04 02:21 54.06334 -28.12217 33002 ft 488 kts 87°
2026-05-04 02:21 54.06627 -28.00701 33002 ft 488 kts 88°
2026-05-04 02:22 54.06910 -27.89142 33002 ft 488 kts 88°
2026-05-04 02:22 54.07180 -27.77662 33001 ft 488 kts 88°
2026-05-04 02:23 54.07441 -27.66101 33002 ft 488 kts 88°
2026-05-04 02:23 54.07689 -27.54599 33002 ft 488 kts 88°
2026-05-04 02:24 54.07927 -27.43067 33002 ft 488 kts 88°
2026-05-04 02:24 54.08155 -27.31499 33002 ft 488 kts 88°
2026-05-04 02:25 54.08371 -27.19959 33002 ft 488 kts 88°
2026-05-04 02:25 54.08575 -27.08494 33002 ft 488 kts 88°
2026-05-04 02:26 54.08769 -26.96955 33000 ft 488 kts 88°
2026-05-04 02:26 54.08953 -26.85382 33003 ft 488 kts 88°
2026-05-04 02:27 54.09125 -26.73826 33001 ft 488 kts 88°
2026-05-04 02:27 54.09285 -26.62337 33002 ft 488 kts 89°
2026-05-04 02:28 54.09435 -26.50749 33001 ft 488 kts 89°
2026-05-04 02:28 54.09574 -26.39195 33002 ft 488 kts 89°
2026-05-04 02:29 54.09701 -26.27700 33002 ft 488 kts 89°
2026-05-04 02:29 54.09818 -26.16159 33003 ft 488 kts 89°
2026-05-04 02:30 54.09924 -26.04554 33000 ft 488 kts 89°
2026-05-04 02:30 54.10003 -25.94983 33000 ft 488 kts 89°
2026-05-04 02:31 54.10089 -25.83382 33002 ft 488 kts 89°
2026-05-04 02:31 54.10163 -25.71887 33002 ft 488 kts 89°
2026-05-04 02:32 54.10227 -25.60316 33001 ft 488 kts 89°
2026-05-04 02:32 54.10279 -25.48768 33002 ft 488 kts 89°
2026-05-04 02:33 54.10320 -25.37211 33002 ft 488 kts 90°
2026-05-04 02:33 54.10350 -25.25711 33001 ft 488 kts 90°
2026-05-04 02:34 54.10369 -25.14133 33003 ft 488 kts 90°
2026-05-04 02:34 54.10377 -25.02564 33002 ft 488 kts 90°
2026-05-04 02:35 54.10374 -24.91012 32999 ft 488 kts 90°
2026-05-04 02:35 54.10360 -24.79505 33000 ft 488 kts 90°
2026-05-04 02:36 54.10335 -24.67925 33003 ft 488 kts 90°
2026-05-04 02:36 54.10299 -24.56356 33000 ft 488 kts 90°
2026-05-04 02:37 54.10251 -24.44848 33000 ft 488 kts 90°
2026-05-04 02:37 54.10193 -24.33278 33002 ft 488 kts 90°
2026-05-04 02:38 54.10124 -24.21727 33002 ft 488 kts 90°
2026-05-04 02:38 54.10043 -24.10152 33002 ft 488 kts 91°
2026-05-04 02:39 54.09952 -23.98642 33000 ft 488 kts 91°
2026-05-04 02:39 54.09850 -23.87131 33000 ft 488 kts 91°
2026-05-04 02:40 54.09736 -23.75567 33003 ft 488 kts 91°
2026-05-04 02:40 54.09611 -23.64001 33002 ft 488 kts 91°
2026-05-04 02:41 54.09475 -23.52455 33000 ft 488 kts 91°
2026-05-04 02:41 54.09329 -23.40915 33002 ft 488 kts 91°
2026-05-04 02:42 54.09170 -23.29349 33001 ft 488 kts 91°
2026-05-04 02:42 54.09003 -23.17874 33000 ft 488 kts 91°
2026-05-04 02:43 54.08822 -23.06303 33002 ft 488 kts 91°
2026-05-04 02:43 54.08631 -22.94745 33000 ft 488 kts 91°
2026-05-04 02:44 54.08430 -22.83251 33000 ft 488 kts 92°
2026-05-04 02:44 54.08217 -22.71698 33002 ft 488 kts 92°
2026-05-04 02:45 54.07992 -22.60124 33002 ft 488 kts 92°
2026-05-04 02:45 54.07756 -22.48561 33001 ft 488 kts 92°
2026-05-04 02:46 54.07510 -22.37033 33000 ft 488 kts 92°
2026-05-04 02:46 54.07253 -22.25496 33002 ft 488 kts 92°
2026-05-04 02:47 54.06984 -22.13953 33000 ft 488 kts 92°
2026-05-04 02:47 54.06707 -22.02476 33003 ft 488 kts 92°
2026-05-04 02:48 54.06414 -21.90872 33000 ft 488 kts 92°
2026-05-04 02:48 54.06114 -21.79374 33000 ft 488 kts 92°
2026-05-04 02:49 54.05801 -21.67837 33002 ft 488 kts 92°
2026-05-04 02:49 54.05479 -21.56365 33002 ft 488 kts 92°
2026-05-04 02:50 54.05144 -21.44816 33001 ft 488 kts 93°
2026-05-04 02:50 54.04799 -21.33282 33002 ft 488 kts 93°
2026-05-04 02:51 54.04442 -21.21770 33001 ft 488 kts 93°
2026-05-04 02:51 54.04074 -21.10221 33002 ft 488 kts 93°
2026-05-04 02:52 54.03698 -20.98768 33003 ft 488 kts 93°
2026-05-04 02:52 54.03308 -20.87250 33003 ft 488 kts 93°
2026-05-04 02:53 54.02907 -20.75701 33003 ft 488 kts 93°
2026-05-04 02:53 54.02495 -20.64188 33002 ft 488 kts 94°
2026-05-04 02:54 54.02072 -20.52652 33000 ft 488 kts 94°
2026-05-04 02:54 54.01640 -20.41195 33001 ft 488 kts 94°
2026-05-04 02:55 54.00968 -20.23897 33000 ft 488 kts 94°
2026-05-04 02:56 54.00509 -20.12402 33001 ft 488 kts 94°
2026-05-04 02:56 54.00046 -20.00892 33002 ft 488 kts 92°
2026-05-04 02:57 54.00134 -19.89441 33011 ft 487 kts 88°
2026-05-04 02:57 54.00402 -19.77886 33003 ft 488 kts 88°
2026-05-04 02:58 54.00644 -19.66372 33000 ft 488 kts 88°
2026-05-04 02:58 54.00852 -19.54867 33000 ft 488 kts 88°
2026-05-04 02:59 54.01042 -19.43311 33001 ft 488 kts 88°
2026-05-04 02:59 54.01219 -19.31825 33000 ft 488 kts 88°
2026-05-04 03:00 54.01387 -19.20289 33001 ft 488 kts 89°
2026-05-04 03:00 54.01544 -19.08763 33002 ft 488 kts 89°
2026-05-04 03:01 54.01691 -18.97224 33002 ft 488 kts 89°
2026-05-04 03:01 54.01827 -18.85674 33003 ft 488 kts 89°
2026-05-04 03:02 54.01951 -18.74105 33002 ft 488 kts 89°
2026-05-04 03:02 54.02065 -18.62600 33000 ft 488 kts 89°
2026-05-04 03:03 54.02167 -18.51053 33002 ft 488 kts 89°
2026-05-04 03:03 54.02258 -18.39505 33002 ft 488 kts 89°
2026-05-04 03:04 54.02338 -18.27983 33002 ft 488 kts 89°
2026-05-04 03:04 54.02407 -18.16494 33000 ft 488 kts 89°
2026-05-04 03:05 54.02465 -18.04942 33001 ft 488 kts 89°
2026-05-04 03:05 54.02513 -17.93396 33001 ft 488 kts 90°
2026-05-04 03:06 54.02549 -17.81890 33000 ft 488 kts 90°
2026-05-04 03:06 54.02574 -17.70340 33000 ft 488 kts 90°
2026-05-04 03:07 54.02588 -17.58804 33001 ft 488 kts 90°
2026-05-04 03:07 54.02590 -17.47262 33002 ft 488 kts 90°
2026-05-04 03:08 54.02582 -17.35696 33002 ft 488 kts 90°
2026-05-04 03:08 54.02563 -17.24176 33001 ft 488 kts 90°
2026-05-04 03:09 54.02533 -17.12637 33002 ft 488 kts 90°
2026-05-04 03:09 54.02492 -17.01157 33002 ft 488 kts 90°
2026-05-04 03:10 54.02440 -16.89603 33000 ft 488 kts 90°
2026-05-04 03:10 54.02376 -16.78069 33000 ft 488 kts 90°
2026-05-04 03:11 54.02302 -16.66564 33002 ft 488 kts 90°
2026-05-04 03:11 54.02217 -16.55039 33001 ft 488 kts 91°
2026-05-04 03:12 54.02120 -16.43494 33002 ft 488 kts 91°
2026-05-04 03:12 54.02013 -16.31944 33000 ft 488 kts 91°
2026-05-04 03:13 54.01894 -16.20419 33000 ft 488 kts 91°
2026-05-04 03:13 54.01765 -16.08865 33002 ft 488 kts 91°
2026-05-04 03:14 54.01624 -15.97317 33002 ft 488 kts 91°
2026-05-04 03:14 54.01472 -15.85781 33001 ft 488 kts 91°
2026-05-04 03:15 54.01310 -15.74280 33002 ft 488 kts 91°
2026-05-04 03:15 54.01136 -15.62738 33002 ft 488 kts 91°
2026-05-04 03:16 54.00952 -15.51193 33002 ft 488 kts 91°
2026-05-04 03:16 54.00756 -15.39659 33000 ft 488 kts 91°
2026-05-04 03:17 54.00549 -15.28107 33000 ft 488 kts 92°
2026-05-04 03:17 54.00332 -15.16607 33003 ft 488 kts 92°
2026-05-04 03:18 54.00105 -15.05073 33000 ft 488 kts 92°
2026-05-04 03:18 53.99930 -14.93591 33000 ft 488 kts 90°
2026-05-04 03:19 53.99997 -14.82037 33001 ft 488 kts 89°
2026-05-04 03:19 54.00075 -14.70477 33002 ft 488 kts 89°
2026-05-04 03:20 54.00104 -14.58995 33000 ft 488 kts 90°
2026-05-04 03:20 54.00104 -14.47452 33002 ft 488 kts 90°
2026-05-04 03:21 54.00094 -14.35882 33001 ft 488 kts 90°
2026-05-04 03:21 54.00075 -14.24380 33002 ft 488 kts 90°
2026-05-04 03:22 54.00047 -14.12845 33001 ft 488 kts 90°
2026-05-04 03:22 53.99696 -14.01300 32996 ft 488 kts 99°
2026-05-04 03:23 53.98116 -13.90183 33001 ft 488 kts 109°
2026-05-04 03:23 53.95866 -13.79316 33005 ft 488 kts 109°
2026-05-04 03:24 53.93598 -13.68441 33000 ft 488 kts 109°
2026-05-04 03:24 53.91352 -13.57575 33001 ft 488 kts 109°
2026-05-04 03:25 53.89121 -13.46751 33001 ft 489 kts 109°
2026-05-04 03:25 53.86867 -13.35859 33001 ft 489 kts 109°
2026-05-04 03:26 53.84611 -13.25021 33002 ft 489 kts 109°
2026-05-04 03:26 53.82339 -13.14166 33002 ft 489 kts 109°
2026-05-04 03:27 53.80072 -13.03401 33001 ft 488 kts 110°
2026-05-04 03:27 53.77781 -12.92574 33002 ft 488 kts 110°
2026-05-04 03:28 53.75480 -12.81760 33001 ft 488 kts 110°
2026-05-04 03:28 53.73171 -12.70967 33001 ft 488 kts 110°
2026-05-04 03:29 53.70861 -12.60228 33002 ft 488 kts 110°
2026-05-04 03:29 53.68528 -12.49433 33000 ft 488 kts 110°
2026-05-04 03:30 53.66195 -12.38699 33001 ft 488 kts 110°
2026-05-04 03:30 53.63846 -12.27948 33000 ft 488 kts 110°
2026-05-04 03:31 53.61501 -12.17267 33001 ft 488 kts 110°
2026-05-04 03:31 53.59142 -12.06581 33001 ft 488 kts 110°
2026-05-04 03:32 53.56769 -11.95883 33002 ft 488 kts 110°
2026-05-04 03:32 53.54382 -11.85182 33002 ft 488 kts 110°
2026-05-04 03:33 53.51987 -11.74494 33001 ft 488 kts 111°
2026-05-04 03:33 53.49589 -11.63855 33001 ft 488 kts 111°
2026-05-04 03:34 53.47176 -11.53199 33002 ft 488 kts 111°
2026-05-04 03:34 53.44755 -11.42558 33001 ft 488 kts 111°
2026-05-04 03:35 53.42314 -11.31887 33001 ft 488 kts 111°
2026-05-04 03:35 53.39876 -11.21282 33000 ft 488 kts 111°
2026-05-04 03:36 53.37437 -11.10728 33001 ft 488 kts 111°
2026-05-04 03:36 53.34974 -11.00117 33002 ft 488 kts 111°
2026-05-04 03:37 53.32504 -10.89534 33001 ft 488 kts 111°
2026-05-04 03:37 53.30024 -10.78960 33001 ft 488 kts 111°
2026-05-04 03:38 53.27534 -10.68395 33000 ft 488 kts 111°
2026-05-04 03:38 53.25049 -10.57901 33002 ft 488 kts 111°
2026-05-04 03:39 53.22534 -10.47331 33001 ft 488 kts 111°
2026-05-04 03:39 53.20018 -10.36809 33002 ft 488 kts 112°
2026-05-04 03:40 53.17491 -10.26294 33001 ft 488 kts 112°
2026-05-04 03:40 53.14971 -10.15858 33001 ft 488 kts 112°
2026-05-04 03:41 53.12854 -10.07128 33002 ft 488 kts 112°
2026-05-04 03:41 53.09880 -9.94925 33002 ft 488 kts 112°
2026-05-04 03:42 53.07746 -9.86209 33001 ft 488 kts 112°
2026-05-04 03:42 53.05174 -9.75751 33002 ft 488 kts 112°
2026-05-04 03:43 53.02590 -9.65294 33000 ft 488 kts 112°
2026-05-04 03:43 52.99997 -9.54848 33000 ft 488 kts 112°
2026-05-04 03:44 52.97415 -9.44499 33002 ft 488 kts 112°
2026-05-04 03:44 52.94799 -9.34061 33001 ft 489 kts 112°
2026-05-04 03:45 52.92180 -9.23659 33001 ft 489 kts 112°
2026-05-04 03:45 52.89555 -9.13283 33002 ft 489 kts 113°
2026-05-04 03:46 52.86923 -9.02926 33002 ft 489 kts 113°
2026-05-04 03:46 52.84289 -8.92610 33000 ft 489 kts 113°
2026-05-04 03:47 52.81633 -8.82256 33001 ft 489 kts 113°
2026-05-04 03:47 52.78960 -8.71883 33002 ft 489 kts 113°
2026-05-04 03:48 52.76302 -8.61616 33001 ft 489 kts 113°
2026-05-04 03:48 52.73611 -8.51271 33003 ft 489 kts 113°
2026-05-04 03:49 52.70931 -8.41012 33001 ft 489 kts 113°
2026-05-04 03:49 52.68227 -8.30709 32999 ft 489 kts 113°
2026-05-04 03:50 52.65527 -8.20466 33004 ft 490 kts 114°
2026-05-04 03:50 52.62800 -8.10168 33002 ft 490 kts 114°
2026-05-04 03:51 52.60060 -7.99867 33005 ft 491 kts 114°
2026-05-04 03:51 52.57329 -7.89649 33000 ft 490 kts 114°
2026-05-04 03:52 52.54576 -7.79393 32999 ft 490 kts 114°
2026-05-04 03:52 52.51813 -7.69142 33002 ft 490 kts 114°
2026-05-04 03:53 52.49059 -7.58976 33000 ft 489 kts 114°
2026-05-04 03:53 52.46284 -7.48772 33000 ft 489 kts 114°
2026-05-04 03:54 52.43509 -7.38617 33002 ft 489 kts 114°
2026-05-04 03:54 52.40723 -7.28463 32999 ft 489 kts 114°
2026-05-04 03:55 52.37913 -7.18270 33003 ft 489 kts 114°
2026-05-04 03:55 52.35117 -7.08169 33001 ft 489 kts 114°
2026-05-04 03:56 52.32303 -6.98046 33003 ft 489 kts 114°
2026-05-04 03:56 52.29468 -6.87894 33001 ft 489 kts 115°
2026-05-04 03:57 52.26650 -6.77846 33001 ft 489 kts 115°
2026-05-04 03:57 52.23806 -6.67749 33001 ft 489 kts 115°
2026-05-04 03:58 52.19546 -6.52705 33001 ft 489 kts 115°
2026-05-04 03:58 52.16681 -6.42640 33001 ft 488 kts 115°
2026-05-04 03:59 52.13821 -6.32635 33001 ft 488 kts 115°
2026-05-04 03:59 52.10956 -6.22654 33001 ft 488 kts 115°
2026-05-04 04:00 52.08072 -6.12645 33001 ft 488 kts 115°
2026-05-04 04:00 52.05179 -6.02643 33002 ft 488 kts 115°
2026-05-04 04:01 52.02347 -5.92626 33001 ft 488 kts 114°
2026-05-04 04:01 51.99530 -5.82574 33001 ft 489 kts 114°
2026-05-04 04:02 51.96717 -5.72606 33001 ft 489 kts 115°
2026-05-04 04:02 51.93879 -5.62622 33000 ft 489 kts 115°
2026-05-04 04:03 51.91023 -5.52620 33002 ft 489 kts 115°
2026-05-04 04:03 51.88163 -5.42650 33001 ft 489 kts 115°
2026-05-04 04:04 51.85295 -5.32688 33002 ft 489 kts 115°
2026-05-04 04:04 51.82410 -5.22711 33000 ft 489 kts 115°
2026-05-04 04:05 51.79528 -5.12777 33000 ft 489 kts 115°
2026-05-04 04:05 51.76654 -5.02815 32998 ft 489 kts 114°
2026-05-04 04:06 51.74010 -4.92759 33002 ft 489 kts 112°
2026-05-04 04:06 51.71401 -4.82652 33003 ft 489 kts 113°
2026-05-04 04:07 51.68746 -4.72560 33000 ft 489 kts 113°
2026-05-04 04:07 51.66063 -4.62490 33002 ft 489 kts 113°
2026-05-04 04:08 51.63371 -4.52437 33000 ft 489 kts 113°
2026-05-04 04:08 51.60673 -4.42394 33001 ft 489 kts 113°
2026-05-04 04:09 51.57971 -4.32371 33001 ft 489 kts 114°
2026-05-04 04:09 51.55289 -4.22328 32999 ft 489 kts 110°
2026-05-04 04:10 51.53478 -4.11886 33001 ft 489 kts 99°
2026-05-04 04:10 51.52367 -4.01128 33006 ft 489 kts 99°
2026-05-04 04:11 51.51190 -3.90392 33001 ft 489 kts 100°
2026-05-04 04:11 51.49952 -3.79666 33001 ft 489 kts 101°
2026-05-04 04:12 51.48683 -3.68930 33000 ft 489 kts 101°
2026-05-04 04:12 51.47590 -3.58228 32999 ft 489 kts 95°
2026-05-04 04:13 51.46985 -3.47379 33004 ft 489 kts 95°
2026-05-04 04:13 51.46384 -3.36511 33001 ft 490 kts 95°
2026-05-04 04:14 51.45746 -3.25642 33003 ft 490 kts 95°
2026-05-04 04:14 51.45417 -3.20191 32265 ft 501 kts 95°
2026-05-04 04:14 51.45072 -3.14561 31468 ft 503 kts 96°
2026-05-04 04:15 51.44728 -3.08996 30589 ft 508 kts 96°
2026-05-04 04:15 51.44376 -3.03328 30125 ft 517 kts 96°
2026-05-04 04:15 51.44014 -2.97550 29674 ft 517 kts 96°
2026-05-04 04:15 51.43658 -2.91897 28877 ft 513 kts 96°
2026-05-04 04:16 51.43297 -2.86204 28131 ft 514 kts 96°
2026-05-04 04:16 51.42933 -2.80519 27993 ft 515 kts 96°
2026-05-04 04:16 51.42564 -2.74800 27985 ft 513 kts 96°
2026-05-04 04:16 51.42195 -2.69114 27939 ft 504 kts 96°
2026-05-04 04:17 51.41836 -2.63619 27709 ft 494 kts 96°
2026-05-04 04:17 51.41481 -2.58224 27560 ft 485 kts 96°
2026-05-04 04:17 51.41128 -2.52897 27403 ft 475 kts 96°
2026-05-04 04:17 51.40779 -2.47662 27211 ft 467 kts 96°
2026-05-04 04:18 51.40433 -2.42536 26904 ft 463 kts 96°
2026-05-04 04:18 51.40088 -2.37464 26506 ft 461 kts 96°
2026-05-04 04:18 51.39737 -2.32338 26035 ft 460 kts 96°
2026-05-04 04:18 51.39389 -2.27283 25602 ft 459 kts 96°
2026-05-04 04:19 51.39037 -2.22191 25205 ft 457 kts 96°
2026-05-04 04:19 51.38689 -2.17187 24851 ft 454 kts 96°
2026-05-04 04:19 51.38336 -2.12139 24435 ft 452 kts 96°
2026-05-04 04:19 51.37985 -2.07139 23877 ft 451 kts 96°
2026-05-04 04:20 51.37636 -2.02207 23268 ft 451 kts 96°
2026-05-04 04:20 51.37281 -1.97229 22723 ft 450 kts 96°
2026-05-04 04:20 51.36921 -1.92225 22236 ft 446 kts 96°
2026-05-04 04:20 51.36568 -1.87355 21790 ft 442 kts 96°
2026-05-04 04:21 51.36215 -1.82506 21017 ft 434 kts 97°
2026-05-04 04:21 51.35868 -1.77762 19987 ft 427 kts 97°
2026-05-04 04:21 51.35524 -1.73077 19035 ft 427 kts 97°
2026-05-04 04:21 51.35176 -1.68362 18042 ft 423 kts 97°
2026-05-04 04:22 51.34835 -1.63755 16949 ft 417 kts 97°
2026-05-04 04:22 51.34489 -1.59115 16163 ft 420 kts 97°
2026-05-04 04:22 51.34142 -1.54493 15918 ft 412 kts 97°
2026-05-04 04:22 51.33810 -1.50055 15811 ft 398 kts 97°
2026-05-04 04:23 51.33484 -1.45703 15323 ft 385 kts 97°
2026-05-04 04:23 51.33169 -1.41512 14598 ft 375 kts 97°
2026-05-04 04:23 51.32856 -1.37356 14154 ft 384 kts 97°
2026-05-04 04:23 51.32536 -1.33130 14081 ft 375 kts 97°
2026-05-04 04:24 51.32225 -1.29053 13837 ft 369 kts 97°
2026-05-04 04:24 51.31914 -1.24975 13452 ft 368 kts 97°
2026-05-04 04:24 51.31602 -1.20929 13068 ft 367 kts 97°
2026-05-04 04:24 51.31294 -1.16915 12783 ft 363 kts 96°
2026-05-04 04:25 51.31128 -1.12860 12372 ft 363 kts 91°
2026-05-04 04:25 51.31111 -1.08850 11901 ft 365 kts 90°
2026-05-04 04:25 51.31124 -1.04799 11456 ft 366 kts 90°
2026-05-04 04:25 51.31126 -1.00712 11090 ft 365 kts 90°
2026-05-04 04:26 51.31110 -0.96701 10765 ft 362 kts 90°
2026-05-04 04:26 51.31081 -0.92663 10444 ft 360 kts 91°
2026-05-04 04:26 51.31043 -0.88699 10107 ft 358 kts 91°
2026-05-04 04:26 51.31003 -0.84716 9779 ft 357 kts 91°
2026-05-04 04:27 51.30960 -0.80780 9463 ft 355 kts 91°
2026-05-04 04:27 51.30915 -0.76831 9155 ft 354 kts 91°
2026-05-04 04:27 51.30869 -0.72930 8857 ft 352 kts 91°
2026-05-04 04:27 51.30822 -0.69055 8628 ft 337 kts 91°
2026-05-04 04:28 51.30779 -0.65479 8439 ft 312 kts 91°
2026-05-04 04:28 51.30736 -0.62088 8238 ft 293 kts 91°
2026-05-04 04:28 51.30696 -0.58943 7964 ft 281 kts 91°
2026-05-04 04:28 51.30657 -0.55861 7765 ft 277 kts 91°
2026-05-04 04:29 51.30617 -0.52797 7471 ft 269 kts 91°
2026-05-04 04:29 51.30577 -0.49861 7372 ft 264 kts 91°
2026-05-04 04:29 51.30535 -0.46910 7138 ft 262 kts 91°
2026-05-04 04:29 51.30548 -0.44072 7035 ft 254 kts 82°
2026-05-04 04:30 51.30947 -0.41318 7027 ft 253 kts 73°
2026-05-04 04:30 51.31452 -0.38620 7000 ft 256 kts 73°
2026-05-04 04:30 51.31947 -0.35898 7029 ft 252 kts 74°
2026-05-04 04:30 51.32409 -0.33242 6994 ft 248 kts 75°
2026-05-04 04:31 51.32854 -0.30609 6988 ft 246 kts 75°
2026-05-04 04:31 51.33297 -0.27964 6994 ft 245 kts 75°
2026-05-04 04:31 51.33733 -0.25355 6953 ft 248 kts 75°
2026-05-04 04:31 51.34186 -0.22640 6577 ft 252 kts 75°
2026-05-04 04:32 51.34628 -0.19983 6337 ft 245 kts 75°
2026-05-04 04:32 51.35060 -0.17379 6073 ft 240 kts 75°
2026-05-04 04:32 51.35490 -0.14780 5775 ft 241 kts 75°
2026-05-04 04:32 51.36050 -0.12310 5449 ft 238 kts 56°
2026-05-04 04:33 51.37290 -0.10670 5158 ft 234 kts 20°
2026-05-04 04:33 51.38875 -0.10249 4899 ft 232 kts
2026-05-04 04:33 51.40495 -0.10290 4603 ft 233 kts 357°
2026-05-04 04:33 51.42126 -0.10395 4305 ft 233 kts 358°
2026-05-04 04:34 51.43731 -0.10481 4000 ft 229 kts 356°
2026-05-04 04:34 51.45223 -0.11073 3696 ft 220 kts 328°
2026-05-04 04:34 51.46192 -0.12847 3428 ft 208 kts 291°
2026-05-04 04:34 51.46434 -0.15083 3193 ft 206 kts 275°
2026-05-04 04:35 51.46540 -0.17365 2974 ft 207 kts 272°
2026-05-04 04:35 51.46567 -0.19654 2783 ft 205 kts 270°
2026-05-04 04:35 51.46562 -0.21916 2628 ft 198 kts 270°
2026-05-04 04:35 51.46554 -0.24158 2434 ft 208 kts 270°
2026-05-04 04:36 51.46546 -0.26487 2148 ft 206 kts 270°
2026-05-04 04:36 51.46539 -0.28763 1873 ft 198 kts 270°
2026-05-04 04:36 51.46531 -0.30925 1630 ft 195 kts 270°
2026-05-04 04:36 51.46525 -0.33120 1366 ft 197 kts 270°
2026-05-04 04:37 51.46505 -0.39667 583 ft 195 kts 270°
2026-05-04 04:37 51.46496 -0.41826 336 ft 194 kts 269°
2026-05-04 04:38 51.46488 -0.44006 92 ft 194 kts 269°
2026-05-04 04:38 51.46492 -0.45676 90 ft 82 kts 270°
2026-05-04 04:38 51.46489 -0.46174 92 ft 21 kts 266°
2026-05-04 04:38 51.46486 -0.46248 96 ft 0 kts 268°
2026-05-04 04:39 51.46487 -0.46320 96 ft 19 kts 271°
2026-05-04 04:39 51.46505 -0.46558 97 ft 8 kts 282°
2026-05-04 04:39 51.46539 -0.46701 96 ft 12 kts 295°
2026-05-04 04:39 51.46576 -0.46809 96 ft 10 kts 310°
2026-05-04 04:40 51.46643 -0.46902 95 ft 14 kts 294°
2026-05-04 04:40 51.46653 -0.47081 91 ft 21 kts 272°
2026-05-04 04:40 51.46659 -0.47350 94 ft 25 kts 270°
2026-05-04 04:40 51.46660 -0.47618 93 ft 19 kts 270°
2026-05-04 04:41 51.46677 -0.47814 95 ft 18 kts 308°
2026-05-04 04:41 51.46737 -0.47962 93 ft 13 kts 283°
2026-05-04 04:41 51.46743 -0.48110 92 ft 14 kts 269°
2026-05-04 04:41 51.46745 -0.48263 92 ft 13 kts 277°
2026-05-04 04:42 51.46832 -0.48347 94 ft 13 kts 356°
2026-05-04 04:42 51.46899 -0.48351 92 ft 17 kts 358°
2026-05-04 04:42 51.46981 -0.48355 92 ft 8 kts 356°
2026-05-04 04:42 51.47023 -0.48389 95 ft 4 kts 311°
2026-05-04 04:43 51.47028 -0.48402 93 ft 0 kts 299°
2026-05-04 04:43 51.47030 -0.48411 94 ft 0 kts 290°
2026-05-04 04:43 51.47030 -0.48412 94 ft 0 kts 287°
2026-05-04 04:43 51.47024 -0.48437 94 ft 3 kts 232°
2026-05-04 04:44 51.47011 -0.48466 96 ft 2 kts 242°
2026-05-04 04:44 51.47003 -0.48495 94 ft 0 kts 251°
2026-05-04 04:44 51.47001 -0.48507 94 ft 1 kts 250°
2026-05-04 04:44 51.46998 -0.48527 93 ft 4 kts 261°
2026-05-04 04:45 51.46998 -0.48534 93 ft 0 kts 265°
2026-05-04 04:45 51.46996 -0.48557 94 ft 0 kts 263°
2026-05-04 04:45 51.46996 -0.48571 94 ft 0 kts 265°